This is the latest recevied weather packets stored in our database for station/object AC4AG. If no packets are shown the sender has not sent any weather packets the latest 10 day(s).
| Time | Temp. | Humidity | Pressure | Rain* | Wind** | Luminosity | Snow |
|---|---|---|---|---|---|---|---|
| 1777682497 | 12.22° C | 53% | 1013.8 hPa | 0 mm | - | 1 W/m² | - |
| 1777682195 | 12.22° C | 52% | 1013.8 hPa | 0 mm | - | 1 W/m² | - |
| 1777681892 | 12.78° C | 51% | 1013.5 hPa | 0 mm | - | 3 W/m² | - |
| 1777681588 | 12.78° C | 50% | 1013.5 hPa | 0 mm | - | 6 W/m² | - |
| 1777681286 | 12.78° C | 50% | 1013.2 hPa | 0 mm | - | 9 W/m² | - |
| 1777680983 | 12.78° C | 49% | 1013.4 hPa | 0 mm | - | 12 W/m² | - |
| 1777680680 | 12.78° C | 49% | 1013.2 hPa | 0 mm | - | 15 W/m² | - |
| 1777680378 | 12.78° C | 49% | 1013.1 hPa | 0 mm | - | 22 W/m² | - |
| 1777680076 | 13.33° C | 50% | 1013.2 hPa | 0 mm | - | 27 W/m² | - |
| 1777679771 | 13.33° C | 49% | 1013.1 hPa | 0 mm | - | 33 W/m² | - |
| 1777679468 | 13.33° C | 49% | 1013.1 hPa | 0 mm | - | 48 W/m² | - |
| 1777679163 | 13.33° C | 49% | 1013.4 hPa | 0 mm | - | 50 W/m² | - |
| 1777678861 | 13.89° C | 49% | 1013.1 hPa | 0 mm | - | 60 W/m² | - |
| 1777678559 | 13.89° C | 49% | 1012.9 hPa | 0 mm | - | 56 W/m² | - |
| 1777678256 | 13.89° C | 48% | 1012.7 hPa | 0 mm | - | 67 W/m² | - |
| 1777677951 | 14.44° C | 47% | 1012.8 hPa | 0 mm | - | 72 W/m² | - |
| 1777677649 | 14.44° C | 48% | 1012.9 hPa | 0 mm | - | 65 W/m² | - |
| 1777677347 | 15° C | 47% | 1012.9 hPa | 0 mm | - | 69 W/m² | - |
| 1777677045 | 15° C | 46% | 1013.1 hPa | 0 mm | - | 134 W/m² | - |
| 1777676743 | 15° C | 45% | 1012.8 hPa | 0 mm | - | 140 W/m² | - |
| 1777676441 | 15° C | 48% | 1012.9 hPa | 0 mm | - | 208 W/m² | - |
| 1777676138 | 15° C | 47% | 1012.8 hPa | 0 mm | - | 219 W/m² | - |
| 1777675834 | 15° C | 48% | 1013 hPa | 0 mm | - | 151 W/m² | - |
| 1777675532 | 15° C | 49% | 1012.7 hPa | 0 mm | - | 133 W/m² | - |
| 1777675229 | 15° C | 50% | 1012.8 hPa | 0 mm | - | 170 W/m² | - |
* Rain latest hour (hover to see other rain measurements)
** Current wind speed in m/s (hover to see current wind gust speed)